weather.gov     
National Weather Service

Terminal Aerodrome Forecast
NWS Homepage
This page is being discontinued on March 12, 2014.
The same data is available at this site. Please update your bookmarks.
Thank you, and we apologize for the inconvenience.
Please send an email to SR-SRH.Webmaster@noaa.gov with any concerns.


Current Version
Previous Version:    01  02  03  04  05  06  07  08  09  10  11  12  13  14  
[Printable]
301
FTUS41 KGYX 012344
TAFPWM
TAF
KPWM 012344Z 0200/0224 19004KT P6SM SKC
     FM020500 VRB03KT 2SM BR BKN002
     FM020800 VRB03KT 1/4SM FG VV001
     FM021100 16004KT 2SM BR SCT002
     FM021300 17007KT P6SM SCT100=


301
FTUS41 KGYX 012344
TAFPWM
TAF
KPWM 012344Z 0200/0224 19004KT P6SM SKC
     FM020500 VRB03KT 2SM BR BKN002
     FM020800 VRB03KT 1/4SM FG VV001
     FM021100 16004KT 2SM BR SCT002
     FM021300 17007KT P6SM SCT100=




U.S. Dept. of Commerce
NOAA National Weather Service
1325 East West Highway
Silver Spring, MD 20910
E-mail: w-nws.webmaster@noaa.gov
Page last modified: May 16, 2007
NATIONAL WEATHER SERVICE: for Safety, for Work, for Fun - FOR LIFE